TimeCST,TemperatureF,Dew PointF,Humidity,Sea Level PressureIn,VisibilityMPH,Wind Direction,Wind SpeedMPH,Gust SpeedMPH,PrecipitationIn,Events,Conditions,WindDirDegrees,DateUTC
12:15 AM,12.2,-0.4,57,30.34,10.0,Calm,Calm,-,N/A,,Overcast,0,2013-01-23 06:15:00
12:35 AM,12.2,1.4,62,30.34,10.0,Calm,Calm,-,N/A,,Overcast,0,2013-01-23 06:35:00
12:55 AM,14.0,1.4,57,30.33,10.0,Calm,Calm,-,N/A,,Overcast,0,2013-01-23 06:55:00
1:15 AM,14.0,1.4,57,30.33,10.0,Calm,Calm,-,N/A,,Overcast,0,2013-01-23 07:15:00
1:35 AM,14.0,1.4,57,30.32,10.0,Calm,Calm,-,N/A,,Overcast,0,2013-01-23 07:35:00
1:55 AM,14.0,1.4,57,30.32,10.0,Calm,Calm,-,N/A,,Overcast,0,2013-01-23 07:55:00
2:15 AM,14.0,1.4,57,30.31,10.0,Calm,Calm,-,N/A,,Overcast,0,2013-01-23 08:15:00
2:35 AM,15.8,1.4,53,30.31,10.0,Calm,Calm,-,N/A,,Overcast,0,2013-01-23 08:35:00
2:55 AM,15.8,1.4,53,30.30,10.0,South,4.6,-,N/A,,Overcast,170,2013-01-23 08:55:00
3:15 AM,15.8,1.4,53,30.30,10.0,South,3.5,-,N/A,,Overcast,180,2013-01-23 09:15:00
3:35 AM,15.8,1.4,53,30.30,10.0,South,4.6,-,N/A,,Overcast,180,2013-01-23 09:35:00
3:55 AM,15.8,3.2,58,30.29,10.0,South,3.5,-,N/A,,Overcast,170,2013-01-23 09:55:00
4:15 AM,15.8,3.2,58,30.29,10.0,SSE,3.5,-,N/A,,Overcast,160,2013-01-23 10:15:00
4:35 AM,14.0,3.2,62,30.28,10.0,South,8.1,-,N/A,,Mostly Cloudy,180,2013-01-23 10:35:00
4:55 AM,14.0,3.2,62,30.28,10.0,South,5.8,-,N/A,,Clear,180,2013-01-23 10:55:00
5:15 AM,12.2,3.2,67,30.27,10.0,South,6.9,-,N/A,,Clear,180,2013-01-23 11:15:00
5:35 AM,12.2,3.2,67,30.27,10.0,South,6.9,-,N/A,,Clear,190,2013-01-23 11:35:00
5:55 AM,12.2,3.2,67,30.27,10.0,South,5.8,-,N/A,,Clear,180,2013-01-23 11:55:00
6:15 AM,12.2,3.2,67,30.27,10.0,South,6.9,-,N/A,,Clear,190,2013-01-23 12:15:00
6:35 AM,12.2,3.2,67,30.26,10.0,South,5.8,-,N/A,,Clear,170,2013-01-23 12:35:00
6:55 AM,12.2,5.0,73,30.26,10.0,South,4.6,-,N/A,,Clear,170,2013-01-23 12:55:00
7:15 AM,12.2,5.0,73,30.24,10.0,South,6.9,-,N/A,,Clear,170,2013-01-23 13:15:00
7:35 AM,12.2,6.8,79,30.25,10.0,South,3.5,-,N/A,,Clear,180,2013-01-23 13:35:00
7:55 AM,12.2,6.8,79,30.26,10.0,South,4.6,-,N/A,,Clear,170,2013-01-23 13:55:00
8:15 AM,12.2,6.8,79,30.25,10.0,South,5.8,-,N/A,,Clear,170,2013-01-23 14:15:00
8:35 AM,14.0,6.8,73,30.23,10.0,South,8.1,-,N/A,,Clear,170,2013-01-23 14:35:00
8:55 AM,15.8,6.8,68,30.23,10.0,South,9.2,-,N/A,,Clear,180,2013-01-23 14:55:00
9:15 AM,17.6,6.8,63,30.23,10.0,South,8.1,-,N/A,,Clear,190,2013-01-23 15:15:00
9:35 AM,17.6,8.6,68,30.23,10.0,South,9.2,-,N/A,,Clear,190,2013-01-23 15:35:00
9:55 AM,19.4,6.8,58,30.23,10.0,South,10.4,-,N/A,,Clear,190,2013-01-23 15:55:00
10:15 AM,21.2,8.6,58,30.22,10.0,South,8.1,-,N/A,,Clear,180,2013-01-23 16:15:00
10:35 AM,21.2,8.6,58,30.22,10.0,South,9.2,-,N/A,,Clear,190,2013-01-23 16:35:00
10:55 AM,21.2,8.6,58,30.22,10.0,South,5.8,-,N/A,,Clear,190,2013-01-23 16:55:00
11:15 AM,24.8,8.6,50,30.22,10.0,SW,6.9,-,N/A,,Clear,220,2013-01-23 17:15:00
11:35 AM,24.8,10.4,54,30.20,10.0,SW,9.2,-,N/A,,Clear,220,2013-01-23 17:35:00
11:55 AM,26.6,10.4,51,30.19,10.0,SSW,8.1,-,N/A,,Clear,200,2013-01-23 17:55:00
12:15 PM,28.4,10.4,47,30.17,10.0,SSW,9.2,-,N/A,,Clear,200,2013-01-23 18:15:00
12:35 PM,28.4,10.4,47,30.15,10.0,SW,8.1,-,N/A,,Clear,220,2013-01-23 18:35:00
12:55 PM,30.2,12.2,47,30.14,10.0,SW,13.8,18.4,N/A,,Clear,230,2013-01-23 18:55:00
1:15 PM,32.0,12.2,44,30.14,10.0,West,13.8,18.4,N/A,,Clear,270,2013-01-23 19:15:00
1:35 PM,33.8,14.0,44,30.14,10.0,West,13.8,19.6,N/A,,Clear,270,2013-01-23 19:35:00
1:55 PM,33.8,15.8,48,30.14,10.0,WNW,15.0,18.4,N/A,,Clear,290,2013-01-23 19:55:00
2:15 PM,33.8,15.8,48,30.14,10.0,WNW,15.0,-,N/A,,Clear,290,2013-01-23 20:15:00
2:35 PM,33.8,15.8,48,30.14,10.0,WNW,19.6,-,N/A,,Clear,300,2013-01-23 20:35:00
2:55 PM,33.8,17.6,52,30.15,10.0,NW,16.1,25.3,N/A,,Clear,310,2013-01-23 20:55:00
3:15 PM,32.0,17.6,55,30.16,10.0,WNW,16.1,21.9,N/A,,Clear,300,2013-01-23 21:15:00
3:35 PM,30.2,17.6,60,30.17,10.0,WNW,15.0,21.9,N/A,,Clear,300,2013-01-23 21:35:00
3:55 PM,30.2,17.6,60,30.18,10.0,NW,15.0,21.9,N/A,,Clear,310,2013-01-23 21:55:00
4:15 PM,30.2,17.6,60,30.18,10.0,NW,16.1,-,N/A,,Clear,310,2013-01-23 22:15:00
4:35 PM,28.4,15.8,59,30.19,10.0,NW,17.3,23.0,N/A,,Clear,310,2013-01-23 22:35:00
4:55 PM,28.4,15.8,59,30.19,10.0,NW,15.0,24.2,N/A,,Clear,310,2013-01-23 22:55:00
5:15 PM,26.6,15.8,64,30.20,10.0,WNW,16.1,21.9,N/A,,Clear,300,2013-01-23 23:15:00
5:35 PM,26.6,15.8,64,30.21,10.0,NW,16.1,19.6,N/A,,Clear,310,2013-01-23 23:35:00
5:55 PM,26.6,15.8,64,30.22,10.0,NW,13.8,20.7,N/A,,Clear,310,2013-01-23 23:55:00
6:15 PM,24.8,15.8,69,30.24,10.0,WNW,12.7,-,N/A,,Clear,300,2013-01-24 00:15:00
6:35 PM,24.8,15.8,69,30.24,10.0,WNW,13.8,18.4,N/A,,Clear,300,2013-01-24 00:35:00
6:55 PM,24.8,15.8,69,30.25,10.0,NW,16.1,20.7,N/A,,Clear,310,2013-01-24 00:55:00
7:15 PM,24.8,14.0,64,30.26,10.0,NW,18.4,23.0,N/A,,Clear,310,2013-01-24 01:15:00
7:35 PM,23.0,10.4,59,30.27,10.0,NNW,19.6,33.4,N/A,,Clear,330,2013-01-24 01:35:00
7:55 PM,23.0,10.4,59,30.27,10.0,NNW,18.4,28.8,N/A,,Clear,330,2013-01-24 01:55:00
8:15 PM,21.2,10.4,63,30.29,10.0,NW,18.4,26.5,N/A,,Clear,320,2013-01-24 02:15:00
8:35 PM,21.2,10.4,63,30.30,10.0,NNW,17.3,-,N/A,,Clear,340,2013-01-24 02:35:00
8:55 PM,19.4,6.8,58,30.31,10.0,NNW,21.9,26.5,N/A,,Clear,340,2013-01-24 02:55:00
9:15 PM,17.6,3.2,53,30.33,10.0,NNW,19.6,25.3,N/A,,Clear,340,2013-01-24 03:15:00
9:35 PM,17.6,1.4,49,30.34,10.0,NNW,18.4,28.8,N/A,,Clear,330,2013-01-24 03:35:00
9:55 PM,15.8,1.4,53,30.36,10.0,NNW,21.9,28.8,N/A,,Clear,340,2013-01-24 03:55:00
10:15 PM,14.0,1.4,57,30.37,10.0,NNW,19.6,27.6,N/A,,Clear,330,2013-01-24 04:15:00
10:35 PM,12.2,1.4,62,30.39,10.0,NNW,17.3,-,N/A,,Clear,330,2013-01-24 04:35:00
10:55 PM,12.2,1.4,62,30.40,10.0,North,17.3,21.9,N/A,,Clear,350,2013-01-24 04:55:00
11:15 PM,12.2,1.4,62,30.41,10.0,NNW,13.8,-,N/A,,Clear,330,2013-01-24 05:15:00
11:35 PM,10.4,1.4,67,30.43,10.0,NNW,15.0,23.0,N/A,,Clear,340,2013-01-24 05:35:00
11:55 PM,10.4,-0.4,62,30.44,10.0,NNW,16.1,-,N/A,,Clear,340,2013-01-24 05:55:00